HB9TJR-3 Weather Reports


time (UTC)temp
C
wind
direction
speed
KPH
gust
KPH
rain 1hr
cm
rain 24hr
cm
rain mn
cm
humidity
%
barometer
mb
20260506194333 6 0 0.0 0.0 0.00 0.00 0.00 90 860.8
20260506192733 6 0 0.0 0.0 0.00 0.00 0.00 91 860.5
20260506191134 6 0 0.0 0.0 0.00 0.00 0.00 88 860.2
20260506185533 6 0 0.0 0.0 0.00 0.00 0.00 86 860.1
20260506183934 6 0 0.0 0.0 0.00 0.00 0.00 86 860.1
20260506182333 6 0 0.0 0.0 0.00 0.00 0.00 85 860.1
20260506180734 6 0 0.0 0.0 0.00 0.00 0.00 86 860.0
20260506175134 6 0 0.0 0.0 0.00 0.00 0.00 86 859.8
20260506173533 6 0 0.0 0.0 0.00 0.00 0.00 86 859.7
20260506171935 7 0 0.0 0.0 0.00 0.00 0.00 88 859.6
20260506170334 7 0 0.0 0.0 0.00 0.00 0.00 88 859.4
20260506164733 6 0 0.0 0.0 0.00 0.00 0.00 88 859.5
20260506163133 6 0 0.0 0.0 0.00 0.00 0.00 89 859.6
20260506161533 6 0 0.0 0.0 0.00 0.00 0.00 90 859.6
20260506155934 6 0 0.0 0.0 0.00 0.00 0.00 91 859.6
20260506154334 6 0 0.0 0.0 0.00 0.00 0.00 92 859.6
20260506152735 6 0 0.0 0.0 0.00 0.00 0.00 90 859.4
20260506151133 6 0 0.0 0.0 0.00 0.00 0.00 91 859.4
20260506145533 6 0 0.0 0.0 0.00 0.00 0.00 92 859.4
20260506143934 6 0 0.0 0.0 0.00 0.00 0.00 92 859.4
20260506142333 6 0 0.0 0.0 0.00 0.00 0.00 92 859.4
20260506140734 6 0 0.0 0.0 0.00 0.00 0.00 92 859.5
20260506135133 6 0 0.0 0.0 0.00 0.00 0.00 92 859.1
20260506133534 6 0 0.0 0.0 0.00 0.00 0.00 90 859.4
20260506131934 6 0 0.0 0.0 0.00 0.00 0.00 90 859.4
20260506130333 6 0 0.0 0.0 0.00 0.00 0.00 91 859.1
20260506124734 6 0 0.0 0.0 0.00 0.00 0.00 91 858.9
20260506123134 6 0 0.0 0.0 0.00 0.00 0.00 93 858.9
20260506121534 6 0 0.0 0.0 0.00 0.00 0.00 90 858.7
20260506115934 6 0 0.0 0.0 0.00 0.00 0.00 92 858.7
20260506112733 6 0 0.0 0.0 0.00 0.00 0.00 91 858.6
20260506111134 6 0 0.0 0.0 0.00 0.00 0.00 90 858.6
20260506105534 6 0 0.0 0.0 0.00 0.00 0.00 90 858.7
20260506103934 6 0 0.0 0.0 0.00 0.00 0.00 89 858.7
20260506102335 6 0 0.0 0.0 0.00 0.00 0.00 88 858.6
20260506100734 6 0 0.0 0.0 0.00 0.00 0.00 87 858.6
20260506095133 6 0 0.0 0.0 0.00 0.00 0.00 87 858.5
20260506093534 6 0 0.0 0.0 0.00 0.00 0.00 88 858.3
20260506091934 6 0 0.0 0.0 0.00 0.00 0.00 89 858.1
20260506090334 6 0 0.0 0.0 0.00 0.00 0.00 88 857.9
20260506084734 6 0 0.0 0.0 0.00 0.00 0.00 90 857.7
20260506083134 6 0 0.0 0.0 0.00 0.00 0.00 92 857.5
20260506081534 6 0 0.0 0.0 0.00 0.00 0.00 93 857.4
20260506072734 7 0 0.0 0.0 0.00 0.00 0.00 91 857.1
20260506071133 7 0 0.0 0.0 0.00 0.00 0.00 91 857.0
20260506062334 7 0 0.0 0.0 0.00 0.00 0.00 86 857.0
20260506060734 8 0 0.0 0.0 0.00 0.00 0.00 84 856.9
20260506044733 7 0 0.0 0.0 0.00 0.00 0.00 86 856.9
20260506043134 7 0 0.0 0.0 0.00 0.00 0.00 84 857.1
20260506041534 8 0 0.0 0.0 0.00 0.00 0.00 84 857.1
20260506035934 7 0 0.0 0.0 0.00 0.00 0.00 84 857.2
20260506034335 7 0 0.0 0.0 0.00 0.00 0.00 84 857.2
20260506032734 7 0 0.0 0.0 0.00 0.00 0.00 85 857.3
20260506031135 8 0 0.0 0.0 0.00 0.00 0.00 82 857.5
20260506025533 8 0 0.0 0.0 0.00 0.00 0.00 82 857.6
20260506023934 8 0 0.0 0.0 0.00 0.00 0.00 83 857.8
20260506022334 7 0 0.0 0.0 0.00 0.00 0.00 82 857.8
20260506020733 7 0 0.0 0.0 0.00 0.00 0.00 83 858.0
20260506015134 7 0 0.0 0.0 0.00 0.00 0.00 84 858.0
20260506013534 7 0 0.0 0.0 0.00 0.00 0.00 85 858.3
20260506011934 7 0 0.0 0.0 0.00 0.00 0.00 85 858.5
20260506010335 7 0 0.0 0.0 0.00 0.00 0.00 86 858.6
20260506004734 7 0 0.0 0.0 0.00 0.00 0.00 87 858.8
20260506003135 7 0 0.0 0.0 0.00 0.00 0.00 88 859.2
20260506001534 7 0 0.0 0.0 0.00 0.00 0.00 91 859.5
20260505235934 7 0 0.0 0.0 0.00 0.00 0.00 90 859.6
20260505234334 7 0 0.0 0.0 0.00 0.00 0.00 88 859.6
20260505232734 7 0 0.0 0.0 0.00 0.00 0.00 89 859.7
20260505231134 7 0 0.0 0.0 0.00 0.00 0.00 88 859.9
20260505225534 7 0 0.0 0.0 0.00 0.00 0.00 88 860.1
20260505223934 8 0 0.0 0.0 0.00 0.00 0.00 86 860.2
20260505222334 8 0 0.0 0.0 0.00 0.00 0.00 85 860.3
20260505220734 8 0 0.0 0.0 0.00 0.00 0.00 86 860.6
20260505215134 8 0 0.0 0.0 0.00 0.00 0.00 86 860.6
20260505211934 8 0 0.0 0.0 0.00 0.00 0.00 86 860.4
20260505210334 8 0 0.0 0.0 0.00 0.00 0.00 86 860.6
20260505204734 8 0 0.0 0.0 0.00 0.00 0.00 86 860.7
20260505203134 8 0 0.0 0.0 0.00 0.00 0.00 86 860.7
20260505201534 8 0 0.0 0.0 0.00 0.00 0.00 86 860.4
20260505195934 8 0 0.0 0.0 0.00 0.00 0.00 86 860.3